Orbital Elements at Epoch 2459000.5 (2020-May-31.0) TDB
Reference: JPL 24 (heliocentric ecliptic J2000)
Element | Value | Uncertainty (1-sigma) | Units |
e | .1424744176596591 | 5.0054e-08 | |
a | 2.724585205372361 | 1.3317e-08 | au |
q | 2.336401514872811 | 1.3688e-07 | au |
i | 7.176405664732024 | 5.6079e-06 | deg |
node | 344.6403626183234 | 3.4944e-05 | deg |
peri | 181.4301989637794 | 3.8197e-05 | deg |
M | 82.04945196023496 | 1.536e-05 | deg |
tp | 2458626.111757234453 (2019-May-22.61175723) | 6.9647e-05 | TDB |
period | 1642.665053520619 4.50 | 1.2043e-05 3.297e-08 | d yr |
n | .2191560593734158 | 1.6068e-09 | deg/d |
Q | 3.112768895871911 | 1.5214e-08 | au |
|
| | Orbit Determination Parameters
Additional Information
|